Location: Zapote
(9.9191°N, 84.0597°W)
Time: 09:32:16
(UTC-06:00)

Transit 4A - Visible Passes

Search period start: 27 February 2021 00:00
Search period end: 09 March 2021 00:00
Orbit: 866 x 978 km, 66.8° (Epoch: 26 February)

Date Brightness Start Highest point End Pass type
(mag) Time Alt. Az. Time Alt. Az. Time Alt. Az.
02 Mar 9.9 19:22:15 10° N 19:22:42 12° NNE 19:22:42 12° NNE visible
03 Mar 9.2 19:30:49 10° N 19:33:05 23° N 19:33:05 23° N visible
04 Mar 8.4 19:39:49 10° NNW 19:43:44 44° N 19:43:44 44° N visible
05 Mar 9.6 18:08:04 10° ENE 18:08:31 10° ENE 18:08:59 10° ENE visible
05 Mar 8.1 19:49:10 10° NNW 19:54:46 60° WSW 19:54:46 60° WSW visible
06 Mar 9.1 18:14:00 10° NNE 18:17:58 19° ENE 18:21:53 10° ESE visible
06 Mar 9.2 19:58:56 10° NW 20:04:07 34° WSW 20:06:19 26° SSW visible
07 Mar 8.4 18:22:09 10° N 18:27:19 32° ENE 18:32:24 10° SE visible
07 Mar 10.1 20:09:16 10° WNW 20:13:18 19° WSW 20:17:20 10° SSW visible
08 Mar 7.8 18:30:54 10° N 18:36:37 55° ENE 18:42:15 10° SSE visible
08 Mar 10.7 20:21:43 10° W 20:22:31 10° WSW 20:23:17 10° WSW visible
